Location: Caltech
(34.1382°N, 118.1253°W)
Time: 03:43:32
(UTC-07:00)

Iridium 62 - Visible Passes

Search period start: 20 August 2014 00:00
Search period end: 30 August 2014 00:00
Orbit: 776 x 779 km, 86.4° (Epoch: 19 August)

Date Brightness Start Highest point End Pass type
(mag) Time Alt. Az. Time Alt. Az. Time Alt. Az.
20 Aug 7.6 23:04:04 27° NNW 23:04:04 27° NNW 23:06:29 10° N visible
21 Aug 7.3 22:30:30 29° NNE 22:30:30 29° NNE 22:33:01 10° N visible
22 Aug 7.4 21:56:55 23° NE 21:56:55 23° NE 21:59:09 10° NNE visible
22 Aug 8.4 23:37:23 16° NW 23:37:23 16° NW 23:39:03 10° NNW visible
23 Aug 7.8 21:23:20 15° NE 21:23:20 15° NE 21:24:42 10° NE visible
23 Aug 7.8 23:03:47 26° NW 23:03:47 26° NW 23:06:21 10° NNW visible
24 Aug 7.2 22:30:11 35° N 22:30:11 35° N 22:33:07 10° N visible
25 Aug 7.0 21:56:33 33° NNE 21:56:33 33° NNE 21:59:30 10° NNE visible
25 Aug 8.6 23:37:00 12° WNW 23:37:00 12° WNW 23:38:04 10° NW visible
26 Aug 7.3 21:22:55 22° NE 21:22:55 22° NE 21:25:26 10° NNE visible
26 Aug 8.0 23:03:22 22° NW 23:03:22 22° NW 23:06:02 10° NNW visible
27 Aug 7.7 20:49:15 13° ENE 20:49:15 13° ENE 20:50:33 10° NE visible
27 Aug 7.1 22:29:42 37° NW 22:29:42 37° NW 22:33:05 10° N visible
28 Aug 6.5 21:56:01 47° N 21:56:01 47° N 21:59:41 10° N visible
29 Aug 6.6 21:22:18 35° NE 21:22:18 35° NE 21:25:54 10° NNE visible
29 Aug 8.2 23:02:45 17° WNW 23:02:45 17° WNW 23:05:24 10° NW visible
